| time (UTC) | temp F | wind direction | speed MPH | gust MPH | rain 1hr in | rain 24hr in | rain mn in | humidity % | barometer mb |
| 20260503212710 | 42 | 257 | 14.0 | 16.0 | 0.00 | 0.00 | 0.00 | 92 | |
| 20260503210710 | 43 | 249 | 14.0 | 16.0 | 0.00 | 0.00 | 0.00 | 91 | |
| 20260503204710 | 43 | 252 | 13.0 | 14.0 | 0.00 | 0.00 | 0.00 | 91 | |
| 20260503202709 | 43 | 259 | 13.0 | 14.0 | 0.00 | 0.00 | 0.00 | 91 | |
| 20260503200709 | 43 | 257 | 13.0 | 14.0 | 0.00 | 0.00 | 0.00 | 90 | |
| 20260503194709 | 43 | 262 | 12.0 | 13.0 | 0.00 | 0.00 | 0.00 | 90 | |
| 20260503192709 | 43 | 251 | 13.0 | 15.0 | 0.00 | 0.00 | 0.00 | 89 | |
| 20260503190709 | 44 | 258 | 14.0 | 17.0 | 0.00 | 0.00 | 0.00 | 88 | |
| 20260503184709 | 44 | 272 | 15.0 | 16.0 | 0.00 | 0.00 | 0.00 | 89 | |
| 20260503182709 | 44 | 267 | 16.0 | 17.0 | 0.00 | 0.00 | 0.00 | 88 | |
| 20260503180709 | 44 | 260 | 15.0 | 16.0 | 0.00 | 0.00 | 0.00 | 89 | |
| 20260503174709 | 44 | 249 | 15.0 | 17.0 | 0.00 | 0.00 | 0.00 | 88 | |
| 20260503172715 | 44 | 246 | 17.0 | 19.0 | 0.00 | 0.00 | 0.00 | 87 | |
| 20260503170709 | 44 | 247 | 16.0 | 19.0 | 0.00 | 0.00 | 0.00 | 88 | |
| 20260503150708 | 45 | 231 | 15.0 | 18.0 | 0.00 | 0.00 | 0.00 | 87 | |
| 20260503130708 | 47 | 234 | 14.0 | 18.0 | 0.00 | 0.00 | 0.00 | 81 | |
| 20260503110707 | 48 | 234 | 13.0 | 19.0 | 0.00 | 0.00 | 0.00 | 76 | |
| 20260503080707 | 46 | 267 | 13.0 | 14.0 | 0.00 | 0.00 | 0.00 | 84 | |
| 20260503072707 | 44 | 280 | 9.0 | 12.0 | 0.00 | 0.00 | 0.00 | 90 | |
| 20260503070707 | 43 | 288 | 12.0 | 14.0 | 0.00 | 0.00 | 0.00 | 94 | |
| 20260503054707 | 42 | 257 | 10.0 | 13.0 | 0.00 | 0.00 | 0.00 | 93 | |
| 20260503052707 | 42 | 253 | 14.0 | 15.0 | 0.00 | 0.00 | 0.00 | 91 | |
| 20260503050706 | 42 | 266 | 13.0 | 14.0 | 0.00 | 0.00 | 0.00 | 91 | |
| 20260503044706 | 42 | 262 | 12.0 | 13.0 | 0.00 | 0.00 | 0.00 | 93 | |
| 20260503042706 | 41 | 254 | 15.0 | 18.0 | 0.00 | 0.00 | 0.00 | 93 | |
| 20260503040706 | 41 | 250 | 16.0 | 18.0 | 0.00 | 0.00 | 0.00 | 93 | |
| 20260503034706 | 42 | 247 | 15.0 | 18.0 | 0.00 | 0.00 | 0.00 | 92 | |
| 20260503032706 | 42 | 237 | 15.0 | 19.0 | 0.00 | 0.00 | 0.00 | 93 | |
| 20260503030706 | 41 | 244 | 13.0 | 17.0 | 0.00 | 0.00 | 0.00 | 93 | |
| 20260503024706 | 41 | 245 | 15.0 | 17.0 | 0.00 | 0.00 | 0.00 | 93 | |
| 20260503022706 | 42 | 261 | 15.0 | 18.0 | 0.00 | 0.00 | 0.00 | 92 | |
| 20260503020706 | 42 | 226 | 19.0 | 22.0 | 0.00 | 0.00 | 0.00 | 90 | |
| 20260503014706 | 42 | 226 | 17.0 | 21.0 | 0.00 | 0.00 | 0.00 | 90 | |
| 20260503012706 | 42 | 224 | 17.0 | 20.0 | 0.00 | 0.00 | 0.00 | 90 | |
| 20260503010706 | 42 | 224 | 17.0 | 22.0 | 0.00 | 0.00 | 0.00 | 90 | |
| 20260503002706 | 43 | 224 | 19.0 | 22.0 | 0.00 | 0.00 | 0.00 | 89 | |
| 20260503000706 | 43 | 226 | 17.0 | 21.0 | 0.00 | 0.00 | 0.00 | 88 | |
| 20260502234705 | 43 | 227 | 17.0 | 20.0 | 0.00 | 0.00 | 0.00 | 88 | |
| 20260502232706 | 43 | 227 | 18.0 | 20.0 | 0.00 | 0.00 | 0.00 | 87 | |
| 20260502230705 | 43 | 232 | 14.0 | 18.0 | 0.00 | 0.00 | 0.00 | 87 | |
| 20260502224706 | 43 | 230 | 14.0 | 17.0 | 0.00 | 0.00 | 0.00 | 86 | |
| 20260502222706 | 44 | 224 | 15.0 | 19.0 | 0.00 | 0.00 | 0.00 | 84 | |
| 20260502220706 | 43 | 221 | 16.0 | 19.0 | 0.00 | 0.00 | 0.00 | 86 | |
| 20260502214705 | 44 | 214 | 13.0 | 16.0 | 0.00 | 0.00 | 0.00 | 85 |